Weather History for Wiscasset, ME

Change the Weather History Date:

Friday, April 5, 2013

  Actual Average Record
Temperature  
Mean Temperature 44 °F -  
Max Temperature 52 °F 46 °F 57 °F (1999)
Min Temperature 37 °F 27 °F 23 °F (2001)
Degree Days  
Heating Degree Days 21    
Moisture  
Dew Point 27 °F    
Average Humidity 53    
Maximum Humidity 70    
Minimum Humidity 33    
Precipitation  
Precipitation 0.00 in - - ()
Sea Level Pressure  
Sea Level Pressure 29.81 in    
Wind  
Wind Speed 7 mph (SSW)    
Max Wind Speed 13 mph    
Max Gust Speed 23 mph    
Visibility 10 miles    
Events      
Averages and records for this station are not official NWS values.
T = Trace of Precipitation, MM = Missing Value Source: NWS Daily Summary

Daily Weather History Graph

Daily Weather History Graph

Search for Another Location

Airport:

Trip Planner

Search our weather history database for the weather conditions in past years. The results will help you decide how hot, cold, wet, or windy it might be!

Date:

Astronomy

Apr. 05, 2013 Rise Set
Actual Time 6:12 AM EDT 7:10 PM EDT
Civil Twilight 5:43 AM EDT 7:40 PM EDT
Nautical Twilight 5:08 AM EDT 8:15 PM EDT
Astronomical Twilight 4:31 AM EDT 8:52 PM EDT
Moon 3:27 AM EDT (4/5) 2:22 PM EDT (4/5)
Length of Visible Light 13h 57m
Length of Day
12h 58m
Waning Crescent, 24% of the Moon is Illuminated
Apr 5
Waning Crescent
Apr 10
New
Apr 18
First Quarter
Apr 25
Full
May 2
Last Quarter

Hourly Weather History & Observations

Time (EDT) Temp. Windchill Dew Point Humidity Pressure Visibility Wind Dir Wind Speed Gust Speed Precip Events Conditions
12:53 AM 41.0 °F 36.4 °F 30.0 °F 65% 29.96 in 10.0 mi SW 6.9 mph - N/A   Clear
1:53 AM 41.0 °F 36.4 °F 30.0 °F 65% 29.95 in 10.0 mi SSW 6.9 mph - N/A   Clear
2:53 AM 39.9 °F 35.8 °F 28.0 °F 63% 29.93 in 10.0 mi SSW 5.8 mph - N/A   Clear
3:53 AM 39.9 °F 35.8 °F 28.9 °F 65% 29.92 in 10.0 mi SSW 5.8 mph - N/A   Clear
4:53 AM 39.9 °F 37.8 °F 28.0 °F 63% 29.91 in 10.0 mi Variable 3.5 mph - N/A   Clear
5:53 AM 39.9 °F 35.8 °F 30.0 °F 68% 29.89 in 10.0 mi SSW 5.8 mph - N/A   Clear
6:53 AM 39.0 °F 33.4 °F 30.0 °F 70% 29.87 in 10.0 mi SSW 8.1 mph - N/A   Clear
7:53 AM 39.9 °F 34.5 °F 30.9 °F 70% 29.88 in 10.0 mi SSW 8.1 mph - N/A   Clear
8:53 AM 41.0 °F 36.4 °F 30.0 °F 65% 29.86 in 10.0 mi SW 6.9 mph - N/A   Clear
9:53 AM 44.1 °F 38.1 °F 28.0 °F 53% 29.83 in 10.0 mi SSW 11.5 mph 17.3 mph N/A   Clear
10:53 AM 46.9 °F - 26.1 °F 44% 29.81 in 10.0 mi SSW 8.1 mph - N/A   Clear
11:53 AM 48.0 °F - 28.0 °F 46% 29.79 in 10.0 mi SSW 8.1 mph - N/A   Clear
12:53 PM 51.1 °F - 27.0 °F 39% 29.75 in 10.0 mi Variable 6.9 mph - N/A   Clear
1:53 PM 50.0 °F - 30.9 °F 48% 29.72 in 10.0 mi South 9.2 mph - N/A   Clear
2:53 PM 51.1 °F - 30.0 °F 44% 29.69 in 10.0 mi South 9.2 mph - N/A   Partly Cloudy
3:53 PM 51.1 °F - 30.0 °F 44% 29.65 in 10.0 mi SSE 6.9 mph - N/A   Scattered Clouds
4:53 PM 50.0 °F - 26.1 °F 39% 29.66 in 10.0 mi SSE 5.8 mph - N/A   Clear
5:53 PM 48.9 °F - 28.9 °F 46% 29.68 in 10.0 mi Calm Calm - N/A   Overcast
6:53 PM 48.0 °F - 19.9 °F 33% 29.71 in 10.0 mi Variable 5.8 mph 19.6 mph N/A   Overcast
7:53 PM 45.0 °F 42.6 °F 18.0 °F 34% 29.74 in 10.0 mi Variable 4.6 mph - N/A   Scattered Clouds
8:53 PM 42.1 °F 35.2 °F 24.1 °F 49% 29.77 in 10.0 mi NW 12.7 mph 23.0 mph N/A   Clear
9:53 PM 39.9 °F 36.7 °F 25.0 °F 55% 29.80 in 10.0 mi Variable 4.6 mph - N/A   Clear
10:53 PM 37.9 °F 34.4 °F 25.0 °F 60% 29.80 in 10.0 mi Variable 4.6 mph - N/A   Clear
11:53 PM 37.9 °F 33.5 °F 19.9 °F 48% 29.81 in 10.0 mi Variable 5.8 mph 18.4 mph N/A   Mostly Cloudy